Aralik, Turkey

11:37 AM +03 on May 26, 2018 (GMT +0300)
Aralik

Weather History for 17038 - March, 2013

Change the Weather History Date:

Tuesday, March 5, 2013

  Actual Average Record
Temperature  
Mean Temperature 39 °F -  
Max Temperature 45 °F 52 °F - ()
Min Temperature 33 °F 42 °F - ()
Degree Days  
Heating Degree Days 26    
Moisture  
Dew Point 33 °F    
Average Humidity 76    
Maximum Humidity 100    
Minimum Humidity 36    
Precipitation  
Precipitation 0.02 in - - ()
Sea Level Pressure  
Sea Level Pressure 30.29 in    
Wind  
Wind Speed 12 mph ()    
Max Wind Speed 25 mph    
Max Gust Speed 36 mph    
Visibility 5.7 miles    
Events Rain , Snow    
T = Trace of Precipitation, MM = Missing Value Source: Averaged Metar Reports

Daily Weather History Graph

Daily Weather History Graph

Search for Another Location

Airport or City:

Astronomy

Mar. 05, 2013 Rise Set
Actual Time 5:49 AM EET 5:16 PM EET
Civil Twilight 5:21 AM EET 5:44 PM EET
Nautical Twilight 4:49 AM EET 6:15 PM EET
Astronomical Twilight 4:18 AM EET 6:47 PM EET
Moon 12:41 AM EET (3/5) 10:32 AM EET (3/5)
Length of Visible Light 12h 22m
Length of Day
11h 27m
Last Quarter, 44% of the Moon is Illuminated
Mar 5
Last Quarter
Mar 11
New
Mar 19
First Quarter
Mar 27
Full
Apr 3
Last Quarter

Hourly Weather History & Observations

Time (EET) Temp. Windchill Dew Point Humidity Pressure Visibility Wind Dir Wind Speed Gust Speed Precip Events Conditions
12:20 AM 44.6 °F 40.2 °F 30.2 °F 57% 30.12 in 6.2 mi SSW 8.1 mph - N/A   Mostly Cloudy
12:50 AM 44.6 °F 40.7 °F 32.0 °F 61% 30.12 in 6.2 mi SW 6.9 mph - N/A   Mostly Cloudy
1:20 AM 44.6 °F 40.2 °F 32.0 °F 61% 30.12 in 6.2 mi SW 8.1 mph - N/A   Mostly Cloudy
1:50 AM 44.6 °F 40.2 °F 33.8 °F 66% 30.12 in 6.2 mi SW 8.1 mph - N/A   Mostly Cloudy
2:00 AM 44 °F - 33 °F 55% 30.14 in 9 mi SW 8.1 mph - -   Partly Cloudy
2:20 AM 44.6 °F 40.2 °F 32.0 °F 61% 30.12 in 6.2 mi SW 8.1 mph - N/A Rain Light Rain Showers
2:50 AM 42.8 °F 38.6 °F 37.4 °F 81% 30.15 in 6.2 mi Variable 6.9 mph - N/A Rain Light Rain Showers
3:20 AM 42.8 °F 34.5 °F 35.6 °F 76% 30.15 in 6.2 mi WNW 18.4 mph - N/A Rain Light Rain Showers
3:50 AM 42.8 °F 36.2 °F 33.8 °F 70% 30.15 in 6.2 mi West 12.7 mph - N/A   Mostly Cloudy
4:20 AM 42.8 °F 34.5 °F 33.8 °F 70% 30.15 in 6.2 mi West 18.4 mph - N/A Rain Light Rain Showers
4:50 AM 42.8 °F 37.0 °F 32.0 °F 66% 30.15 in 6.2 mi SW 10.4 mph - N/A Rain Light Rain Showers
5:20 AM 42.8 °F 36.2 °F 32.0 °F 66% 30.18 in 6.2 mi West 12.7 mph - N/A Rain Light Rain Showers
5:50 AM 42.8 °F 36.6 °F 32.0 °F 66% 30.15 in 6.2 mi WSW 11.5 mph - N/A Rain Light Rain Showers
6:20 AM 42.8 °F 37.0 °F 32.0 °F 66% 30.18 in 6.2 mi WSW 10.4 mph - N/A   Mostly Cloudy
6:50 AM 42.8 °F 37.0 °F 30.2 °F 61% 30.18 in 6.2 mi SW 10.4 mph - N/A   Mostly Cloudy
7:20 AM 42.8 °F 37.0 °F 30.2 °F 61% 30.18 in 6.2 mi West 10.4 mph - N/A   Mostly Cloudy
7:50 AM 42.8 °F 37.5 °F 32.0 °F 66% 30.18 in 6.2 mi WNW 9.2 mph - N/A   Mostly Cloudy
8:00 AM 43 °F - 32 °F 55% 30.21 in 12 mi WNW 9.2 mph - -   Partly Cloudy
8:20 AM 42.8 °F 36.2 °F 33.8 °F 70% 30.21 in 6.2 mi WNW 12.7 mph - N/A   Mostly Cloudy
8:50 AM 41.0 °F 31.9 °F 37.4 °F 87% 30.21 in 6.2 mi NW 19.6 mph - N/A   Mostly Cloudy
9:20 AM 41.0 °F 30.9 °F 33.8 °F 76% 30.24 in 6.2 mi WNW 24.2 mph 35.7 mph N/A   Mostly Cloudy
9:50 AM 42.8 °F 34.3 °F 30.2 °F 61% 30.21 in 6.2 mi WNW 19.6 mph - N/A   Mostly Cloudy
10:20 AM 44.6 °F 37.8 °F 24.8 °F 46% 30.24 in 6.2 mi West 15.0 mph - N/A   Mostly Cloudy
10:50 AM 41.0 °F 33.1 °F 37.4 °F 87% 30.24 in 6.2 mi NNW 15.0 mph 26.5 mph N/A   Mostly Cloudy
11:20 AM 41.0 °F 30.7 °F 37.4 °F 87% 30.27 in 6.2 mi NW 25.3 mph - N/A   Mostly Cloudy
11:50 AM 39.2 °F 28.3 °F 37.4 °F 93% 30.24 in 6.2 mi WNW 25.3 mph - N/A   Mostly Cloudy
12:20 PM 41.0 °F 31.4 °F 33.8 °F 76% 30.24 in 6.2 mi WNW 21.9 mph - N/A   Mostly Cloudy
12:50 PM 42.8 °F 33.5 °F 32.0 °F 66% 30.24 in 6.2 mi West 23.0 mph - N/A   Mostly Cloudy
1:20 PM 42.8 °F 34.0 °F 26.6 °F 53% 30.24 in 6.2 mi West 20.7 mph - N/A   Mostly Cloudy
1:50 PM 42.8 °F 34.8 °F 26.6 °F 53% 30.24 in 6.2 mi WNW 17.3 mph - N/A   Mostly Cloudy
2:00 PM 44 °F - 26 °F 36% 30.27 in 12 mi WNW 17.3 mph - -   Mostly Cloudy
2:20 PM 42.8 °F 34.5 °F 28.4 °F 57% 30.27 in 6.2 mi NW 18.4 mph - N/A   Mostly Cloudy
2:50 PM 42.8 °F 34.3 °F 35.6 °F 76% 30.27 in 6.2 mi WNW 19.6 mph 35.7 mph N/A   Mostly Cloudy
3:20 PM 39.2 °F 28.7 °F 35.6 °F 87% 30.27 in 5.6 mi WNW 23.0 mph - N/A Rain Light Rain Showers
3:50 PM 39.2 °F 28.5 °F 35.6 °F 87% 30.30 in 6.2 mi WNW 24.2 mph 35.7 mph N/A   Mostly Cloudy
4:03 PM 39.2 °F 28.3 °F 35.6 °F 87% 30.30 in 3.7 mi WNW 25.3 mph - N/A Rain Light Rain Showers
4:16 PM 37.4 °F 26.1 °F 33.8 °F 87% 30.33 in 0.7 mi WNW 24.2 mph - N/A Rain , Snow Snow Showers
4:20 PM 37.4 °F 26.6 °F 33.8 °F 87% 30.33 in 0.7 mi WNW 21.9 mph - N/A Rain , Snow Snow Showers
4:36 PM 37.4 °F 27.2 °F 33.8 °F 87% 30.33 in 3.7 mi West 19.6 mph - N/A Rain , Snow Light Snow Showers
4:50 PM 35.6 °F 25.9 °F 33.8 °F 93% 30.33 in 5.6 mi West 16.1 mph - N/A Rain Light Rain Showers
5:20 PM 37.4 °F 30.3 °F 33.8 °F 87% 30.33 in 4.3 mi WSW 10.4 mph - N/A Rain Light Rain Showers
5:50 PM 39.2 °F 32.0 °F 32.0 °F 75% 30.36 in 6.2 mi WSW 11.5 mph - N/A   Mostly Cloudy
6:20 PM 39.2 °F 32.0 °F 30.2 °F 70% 30.36 in 6.2 mi WSW 11.5 mph - N/A   Mostly Cloudy
6:50 PM 39.2 °F 32.5 °F 30.2 °F 70% 30.39 in 6.2 mi WSW 10.4 mph - N/A   Mostly Cloudy
7:20 PM 37.4 °F 32.8 °F 30.2 °F 75% 30.39 in 6.2 mi SW 5.8 mph - N/A   Mostly Cloudy
7:43 PM 37.4 °F 32.1 °F 30.2 °F 75% 30.39 in 6.2 mi SW 6.9 mph - N/A Rain , Snow Light Snow Showers
7:47 PM 37.4 °F 29.3 °F 32.0 °F 81% 30.39 in 6.2 mi WNW 12.7 mph - N/A Rain , Snow Light Snow Showers
7:50 PM 37.4 °F 28.9 °F 33.8 °F 87% 30.39 in 5.0 mi WNW 13.8 mph - N/A Rain , Snow Light Snow Showers
7:59 PM 35.6 °F 24.5 °F 33.8 °F 93% 30.39 in - WNW 20.7 mph - N/A Rain , Snow Light Snow Showers
8:00 PM 37 °F - 33 °F 80% 30.42 in 5 mi WNW 13.8 mph - - Snow Light Snow Showers
8:02 PM 35.6 °F 24.0 °F 33.8 °F 93% 30.42 in 1.1 mi WNW 23.0 mph - N/A Snow Snow Showers
8:20 PM 35.6 °F 27.1 °F 33.8 °F 93% 30.42 in 1.7 mi West 12.7 mph - N/A Snow Snow Showers
8:29 PM 33.8 °F 25.8 °F 33.8 °F 100% 30.42 in - West 10.4 mph - N/A Snow Light Snow Showers
8:37 PM 33.8 °F 25.8 °F 33.8 °F 100% 30.42 in - West 10.4 mph - N/A Snow Light Snow Showers
8:44 PM 35.6 °F 28.6 °F 33.8 °F 93% 30.42 in 3.1 mi WSW 9.2 mph - N/A Snow Light Snow Showers
8:50 PM 35.6 °F 28.0 °F 33.8 °F 93% 30.42 in - WSW 10.4 mph - N/A Snow Light Snow Showers
9:04 PM 35.6 °F 27.5 °F 33.8 °F 93% 30.42 in 3.7 mi WSW 11.5 mph - N/A Snow Light Snow Showers
9:20 PM 37.4 °F 29.8 °F 32.0 °F 81% 30.42 in 5.6 mi SW 11.5 mph - N/A Rain , Snow Light Snow Showers
9:38 PM 37.4 °F 30.3 °F 32.0 °F 81% 30.42 in 6.2 mi WSW 10.4 mph - N/A   Mostly Cloudy
9:50 PM 37.4 °F 30.8 °F 32.0 °F 81% 30.42 in 6.2 mi WSW 9.2 mph - N/A   Mostly Cloudy
10:05 PM 37.4 °F 29.8 °F 32.0 °F 81% 30.42 in 3.7 mi WSW 11.5 mph 23.0 mph N/A Rain , Snow Light Snow Showers
10:16 PM 35.6 °F 27.5 °F 33.8 °F 93% 30.42 in 3.7 mi WSW 11.5 mph - N/A Rain , Snow Light Snow Showers
10:20 PM 35.6 °F 28.0 °F 32.0 °F 87% 30.42 in 5.6 mi WSW 10.4 mph - N/A Rain , Snow Light Snow Showers
10:50 PM 35.6 °F 27.5 °F 32.0 °F 87% 30.45 in 1.2 mi West 11.5 mph - N/A Snow Snow Showers
11:05 PM 35.6 °F 29.2 °F 32.0 °F 87% 30.45 in - WSW 8.1 mph - N/A Snow Light Snow Showers
11:20 PM 35.6 °F 28.0 °F 32.0 °F 87% 30.42 in 6.2 mi WSW 10.4 mph - N/A   Mostly Cloudy
11:50 PM 37.4 °F 29.8 °F 28.4 °F 70% 30.42 in 6.2 mi WSW 11.5 mph - N/A   Mostly Cloudy